Weather History for KTPF - September, 2013

Change the Weather History Date:

Friday, September 13, 2013

  Actual Average (KTPA) Record (KTPA)
Temperature  
Mean Temperature 79 °F 82 °F  
Max Temperature 87 °F 89 °F 95 °F (1990)
Min Temperature 71 °F 75 °F 66 °F (1956)
Degree Days  
Heating Degree Days 0 0  
Month to date heating degree days 0  
Since 1 July heating degree days 0  
Cooling Degree Days 14 17  
Month to date cooling degree days 229  
Year to date cooling degree days 2744  
Growing Degree Days 29 (Base 50)    
Moisture  
Dew Point 71 °F    
Average Humidity 77    
Maximum Humidity 100    
Minimum Humidity 58    
Precipitation  
Precipitation 0.00 in 0.23 in 2.15 in (1903)
Month to date precipitation 3.16  
Year to date precipitation 36.88  
Sea Level Pressure  
Sea Level Pressure 29.88 in    
Wind  
Wind Speed 3 mph (SSW)    
Max Wind Speed 8 mph    
Max Gust Speed -    
Visibility 10 miles    
Events Rain    
T = Trace of Precipitation, MM = Missing Value Source: NWS Daily Summary

Daily Weather History Graph

Daily Weather History Graph

Search for Another Location

Airport or City:

Trip Planner

Search our weather history database for the weather conditions in past years. The results will help you decide how hot, cold, wet, or windy it might be!

Date:

Astronomy

Sep. 13, 2013 Rise Set
Actual Time 7:14 AM EDT 7:36 PM EDT
Civil Twilight 6:50 AM EDT 8:00 PM EDT
Nautical Twilight 6:23 AM EDT 8:27 PM EDT
Astronomical Twilight 5:55 AM EDT 8:55 PM EDT
Moon 3:03 PM EDT (9/13) 1:04 AM EDT (9/13)
Length of Visible Light 13h 09m
Length of Day
12h 22m
First Quarter, 61% of the Moon is Illuminated
Sep 13
First Quarter
Sep 19
Full
Sep 26
Last Quarter
Oct 4
New
Oct 11
First Quarter

Hourly Weather History & Observations

Time (EDT) Temp. Heat Index Dew Point Humidity Pressure Visibility Wind Dir Wind Speed Gust Speed Precip Events Conditions
12:15 AM 75.2 °F - 71.6 °F 89% 29.93 in 10.0 mi SE 3.5 mph - N/A   Clear
12:35 AM 73.4 °F - 71.6 °F 94% 29.92 in 10.0 mi East 3.5 mph - N/A   Clear
12:55 AM 73.4 °F - 71.6 °F 94% 29.92 in 10.0 mi East 3.5 mph - N/A   Clear
1:15 AM 73.4 °F - 71.6 °F 94% 29.92 in 10.0 mi East 3.5 mph - N/A   Clear
1:35 AM 73.4 °F - 71.6 °F 94% 29.92 in 10.0 mi East 4.6 mph - N/A   Clear
1:55 AM 73.4 °F - 71.6 °F 94% 29.92 in 10.0 mi Calm Calm - N/A   Clear
2:15 AM 73.4 °F - 71.6 °F 94% 29.91 in 10.0 mi East 3.5 mph - N/A   Clear
2:35 AM 73.4 °F - 71.6 °F 94% 29.91 in 10.0 mi Calm Calm - N/A   Clear
2:55 AM 73.4 °F - 71.6 °F 94% 29.91 in 10.0 mi Calm Calm - N/A   Clear
3:15 AM 71.6 °F - 71.6 °F 100% 29.90 in 10.0 mi Calm Calm - N/A   Clear
3:35 AM 71.6 °F - 69.8 °F 94% 29.90 in 10.0 mi Calm Calm - N/A   Clear
3:55 AM 71.6 °F - 69.8 °F 94% 29.90 in 10.0 mi Calm Calm - N/A   Clear
4:15 AM 73.4 °F - 69.8 °F 88% 29.89 in 10.0 mi East 3.5 mph - N/A   Clear
4:55 AM 73.4 °F - 69.8 °F 88% 29.90 in 10.0 mi SSE 3.5 mph - N/A   Clear
5:35 AM 75.2 °F - 69.8 °F 83% 29.89 in 10.0 mi South 3.5 mph - N/A   Clear
6:15 AM 73.4 °F - 69.8 °F 88% 29.89 in 10.0 mi Calm Calm - N/A   Clear
6:35 AM 71.6 °F - 69.8 °F 94% 29.89 in 10.0 mi Calm Calm - N/A   Clear
6:55 AM 71.6 °F - 69.8 °F 94% 29.90 in 10.0 mi Calm Calm - N/A   Clear
7:35 AM 73.4 °F - 71.6 °F 94% 29.90 in 10.0 mi South 4.6 mph - N/A   Clear
7:55 AM 75.2 °F - 71.6 °F 89% 29.91 in 10.0 mi South 3.5 mph - N/A   Clear
8:15 AM 77.0 °F - 71.6 °F 83% 29.91 in 10.0 mi South 5.8 mph - N/A   Clear
8:35 AM 77.0 °F - 71.6 °F 83% 29.92 in 10.0 mi South 3.5 mph - N/A   Clear
8:55 AM 78.8 °F - 71.6 °F 78% 29.92 in 10.0 mi SSW 4.6 mph - N/A   Clear
9:15 AM 78.8 °F - 71.6 °F 78% 29.92 in 10.0 mi SSW 3.5 mph - N/A   Clear
9:35 AM 78.8 °F - 71.6 °F 78% 29.91 in 10.0 mi SSW 3.5 mph - N/A   Clear
9:55 AM 80.6 °F 84.6 °F 71.6 °F 74% 29.92 in 10.0 mi SSE 3.5 mph - N/A   Clear
10:15 AM 80.6 °F 84.6 °F 71.6 °F 74% 29.92 in 10.0 mi Calm Calm - N/A   Clear
10:35 AM 80.6 °F 84.6 °F 71.6 °F 74% 29.92 in 10.0 mi Calm Calm - N/A   Clear
11:15 AM 82.4 °F 87.2 °F 71.6 °F 70% 29.92 in 10.0 mi Calm Calm - N/A   Scattered Clouds
11:35 AM 84.2 °F 89.6 °F 71.6 °F 66% 29.91 in 10.0 mi SSW 4.6 mph - N/A   Scattered Clouds
11:55 AM 84.2 °F 89.6 °F 71.6 °F 66% 29.91 in 10.0 mi South 4.6 mph - N/A   Mostly Cloudy
12:15 PM 86.0 °F 91.8 °F 71.6 °F 62% 29.91 in 10.0 mi South 4.6 mph - N/A   Scattered Clouds
12:35 PM 86.0 °F 91.8 °F 71.6 °F 62% 29.90 in 10.0 mi SSW 5.8 mph - N/A   Scattered Clouds
12:55 PM 86.0 °F 93.4 °F 73.4 °F 66% 29.90 in 10.0 mi SSW 5.8 mph - N/A   Clear
1:15 PM 86.0 °F 93.4 °F 73.4 °F 66% 29.89 in 10.0 mi South 3.5 mph - N/A   Clear
1:35 PM 87.8 °F 93.8 °F 71.6 °F 58% 29.87 in 10.0 mi South 4.6 mph - N/A   Scattered Clouds
1:55 PM 86.0 °F 91.8 °F 71.6 °F 62% 29.87 in 10.0 mi SW 4.6 mph - N/A   Scattered Clouds
2:15 PM 87.8 °F 93.8 °F 71.6 °F 58% 29.86 in 10.0 mi WSW 3.5 mph - N/A   Mostly Cloudy
2:35 PM 86.0 °F 91.8 °F 71.6 °F 62% 29.86 in 10.0 mi West 4.6 mph - N/A   Mostly Cloudy
2:55 PM 86.0 °F 91.8 °F 71.6 °F 62% 29.85 in 10.0 mi WSW 6.9 mph - N/A   Mostly Cloudy
3:15 PM 82.4 °F 88.2 °F 73.4 °F 74% 29.85 in 10.0 mi WSW 8.1 mph - N/A   Overcast
3:55 PM 78.8 °F - 69.8 °F 74% 29.85 in 10.0 mi NNW 6.9 mph - N/A Rain Light Rain
4:15 PM 77.0 °F - 69.8 °F 78% 29.85 in 10.0 mi NNW 5.8 mph - N/A Rain Light Rain
4:35 PM 80.6 °F 83.9 °F 69.8 °F 70% 29.84 in 10.0 mi NNW 6.9 mph - N/A   Scattered Clouds
4:55 PM 84.2 °F 88.4 °F 69.8 °F 62% 29.83 in 10.0 mi NW 5.8 mph - N/A   Clear
5:15 PM 86.0 °F 90.4 °F 69.8 °F 58% 29.83 in 10.0 mi West 6.9 mph - N/A   Scattered Clouds
5:35 PM 86.0 °F 91.8 °F 71.6 °F 62% 29.83 in 10.0 mi WNW 6.9 mph - N/A   Scattered Clouds
5:55 PM 84.2 °F 89.6 °F 71.6 °F 66% 29.84 in 10.0 mi NW 4.6 mph - N/A   Clear
6:15 PM 84.2 °F 89.6 °F 71.6 °F 66% 29.83 in 10.0 mi WNW 3.5 mph - N/A   Clear
6:35 PM 84.2 °F 89.6 °F 71.6 °F 66% 29.83 in 10.0 mi NW 3.5 mph - N/A   Clear
6:55 PM 82.4 °F 87.2 °F 71.6 °F 70% 29.83 in 10.0 mi Calm Calm - N/A   Clear
7:15 PM 82.4 °F 87.2 °F 71.6 °F 70% 29.83 in 10.0 mi Calm Calm - N/A   Clear
7:35 PM 82.4 °F 86.3 °F 69.8 °F 66% 29.84 in 10.0 mi Calm Calm - N/A   Clear
7:55 PM 80.6 °F 83.9 °F 69.8 °F 70% 29.84 in 10.0 mi Calm Calm - N/A   Clear
8:15 PM 80.6 °F 84.6 °F 71.6 °F 74% 29.84 in 10.0 mi Calm Calm - N/A   Clear
8:35 PM 80.6 °F 84.6 °F 71.6 °F 74% 29.85 in 10.0 mi Calm Calm - N/A   Clear
8:55 PM 80.6 °F 83.9 °F 69.8 °F 70% 29.86 in 10.0 mi Calm Calm - N/A   Clear
9:15 PM 80.6 °F 83.9 °F 69.8 °F 70% 29.86 in 10.0 mi Calm Calm - N/A   Clear
9:35 PM 80.6 °F 83.9 °F 69.8 °F 70% 29.86 in 10.0 mi Calm Calm - N/A   Clear
9:55 PM 80.6 °F 83.9 °F 69.8 °F 70% 29.87 in 10.0 mi Calm Calm - N/A   Clear
10:15 PM 78.8 °F - 69.8 °F 74% 29.87 in 10.0 mi Calm Calm - N/A   Clear
10:35 PM 78.8 °F - 69.8 °F 74% 29.87 in 10.0 mi Calm Calm - N/A   Clear
10:55 PM 78.8 °F - 71.6 °F 78% 29.87 in 10.0 mi Calm Calm - N/A   Clear
11:15 PM 78.8 °F - 71.6 °F 78% 29.87 in 10.0 mi Calm Calm - N/A   Clear
11:35 PM 78.8 °F - 71.6 °F 78% 29.87 in 10.0 mi Calm Calm - N/A   Clear
11:55 PM 77.0 °F - 71.6 °F 83% 29.87 in 10.0 mi Calm Calm - N/A   Clear